Time,TemperatureF,DewpointF,PressureIn,WindDirection,WindDirectionDegrees,WindSpeedMPH,WindSpeedGustMPH,Humidity,HourlyPrecipIn,Conditions,Clouds,dailyrainin,SoftwareType,DateUTC
2013-03-21 00:04:00,21.0,13.1,29.98,WNW,292,1.0,8.0,71,0.00,,,-99.99,Weather View 32 v60,2013-03-21 04:04:00,
2013-03-21 00:09:00,21.0,13.4,29.98,WSW,247,0.0,8.0,72,0.00,,,-99.99,Weather View 32 v60,2013-03-21 04:09:00,
2013-03-21 00:14:00,21.0,13.1,29.99,North,360,0.0,8.0,71,0.00,,,-99.99,Weather View 32 v60,2013-03-21 04:14:00,
2013-03-21 00:19:00,20.0,13.1,29.99,WSW,247,0.0,8.0,74,0.00,,,-99.99,Weather View 32 v60,2013-03-21 04:19:00,
2013-03-21 00:24:00,20.0,13.4,29.98,WSW,247,0.0,8.0,75,0.00,,,-99.99,Weather View 32 v60,2013-03-21 04:24:00,
2013-03-21 00:29:00,20.0,13.4,29.98,WSW,247,0.0,8.0,75,0.00,,,-99.99,Weather View 32 v60,2013-03-21 04:29:00,
2013-03-21 00:39:00,19.0,13.9,29.98,WSW,247,0.0,8.0,80,0.00,,,-99.99,Weather View 32 v60,2013-03-21 04:39:00,
2013-03-21 00:49:00,19.0,14.4,29.98,WSW,247,0.0,6.0,82,0.00,,,-99.99,Weather View 32 v60,2013-03-21 04:49:00,
2013-03-21 00:54:00,18.0,13.4,29.98,WSW,247,0.0,6.0,82,0.00,,,-99.99,Weather View 32 v60,2013-03-21 04:54:00,
2013-03-21 00:59:00,18.0,13.4,29.98,WSW,247,0.0,6.0,82,0.00,,,-99.99,Weather View 32 v60,2013-03-21 04:59:00,
2013-03-21 01:09:00,17.0,13.3,29.98,WSW,247,0.0,3.0,85,0.00,,,-99.99,Weather View 32 v60,2013-03-21 05:09:00,
2013-03-21 01:14:00,17.0,13.3,29.98,WSW,247,0.0,3.0,85,0.00,,,-99.99,Weather View 32 v60,2013-03-21 05:14:00,
2013-03-21 01:24:00,17.0,13.3,29.98,WSW,247,0.0,0.0,85,0.00,,,-99.99,Weather View 32 v60,2013-03-21 05:24:00,
2013-03-21 01:29:00,16.0,12.8,29.98,WSW,247,0.0,0.0,87,0.00,,,-99.99,Weather View 32 v60,2013-03-21 05:29:00,
2013-03-21 01:39:00,16.0,13.6,29.98,WSW,247,0.0,0.0,90,0.00,,,-99.99,Weather View 32 v60,2013-03-21 05:39:00,
2013-03-21 01:49:00,16.0,13.8,29.98,WSW,247,0.0,0.0,91,0.00,,,-99.99,Weather View 32 v60,2013-03-21 05:49:00,
2013-03-21 01:54:00,16.0,13.6,29.98,WSW,247,0.0,0.0,90,0.00,,,-99.99,Weather View 32 v60,2013-03-21 05:54:00,
2013-03-21 01:59:00,16.0,14.3,29.98,WSW,247,0.0,0.0,93,0.00,,,-99.99,Weather View 32 v60,2013-03-21 05:59:00,
2013-03-21 02:09:00,16.0,15.3,29.98,SW,225,0.0,0.0,97,0.00,,,-99.99,Weather View 32 v60,2013-03-21 06:09:00,
2013-03-21 02:14:00,17.0,16.3,29.98,SW,225,0.0,4.0,97,0.00,,,-99.99,Weather View 32 v60,2013-03-21 06:14:00,
2013-03-21 02:24:00,18.0,17.1,29.98,WSW,247,0.0,4.0,96,0.00,,,-99.99,Weather View 32 v60,2013-03-21 06:24:00,
2013-03-21 02:29:00,18.0,16.6,29.98,WSW,247,1.0,4.0,94,0.00,,,-99.99,Weather View 32 v60,2013-03-21 06:29:00,
2013-03-21 02:39:00,18.0,16.1,29.98,WSW,247,0.0,4.0,92,0.00,,,-99.99,Weather View 32 v60,2013-03-21 06:39:00,
2013-03-21 02:49:00,18.0,16.3,29.98,SW,225,1.0,4.0,93,0.00,,,-99.99,Weather View 32 v60,2013-03-21 06:49:00,
2013-03-21 02:54:00,18.0,16.3,29.97,SW,225,2.0,4.0,93,0.00,,,-99.99,Weather View 32 v60,2013-03-21 06:54:00,
2013-03-21 02:59:00,18.0,16.6,29.97,WSW,247,1.0,4.0,94,0.00,,,-99.99,Weather View 32 v60,2013-03-21 06:59:00,
2013-03-21 03:09:00,18.0,16.3,29.97,WSW,247,0.0,4.0,93,0.00,,,-99.99,Weather View 32 v60,2013-03-21 07:09:00,
2013-03-21 03:14:00,17.0,15.8,29.96,SW,225,0.0,3.0,95,0.00,,,-99.99,Weather View 32 v60,2013-03-21 07:14:00,
2013-03-21 03:24:00,17.0,16.5,29.97,WSW,247,1.0,3.0,98,0.00,,,-99.99,Weather View 32 v60,2013-03-21 07:24:00,
2013-03-21 03:29:00,17.0,16.8,29.97,WSW,247,1.0,3.0,99,0.00,,,-99.99,Weather View 32 v60,2013-03-21 07:29:00,
2013-03-21 03:39:00,17.0,16.8,29.96,WSW,247,0.0,3.0,99,0.00,,,-99.99,Weather View 32 v60,2013-03-21 07:39:00,
2013-03-21 03:44:00,17.0,16.5,29.96,WSW,247,0.0,3.0,98,0.00,,,-99.99,Weather View 32 v60,2013-03-21 07:44:00,
2013-03-21 03:52:00,17.0,16.8,29.96,SW,225,0.0,3.0,99,0.00,,,-99.99,Weather View 32 v60,2013-03-21 07:52:00,
2013-03-21 03:59:00,17.0,17.0,29.96,SW,225,0.0,4.0,100,0.00,,,-99.99,Weather View 32 v60,2013-03-21 07:59:00,
2013-03-21 04:09:00,17.0,17.0,29.96,SW,225,0.0,5.0,100,0.00,,,-99.99,Weather View 32 v60,2013-03-21 08:09:00,
2013-03-21 04:14:00,17.0,17.0,29.95,SW,225,0.0,5.0,100,0.00,,,-99.99,Weather View 32 v60,2013-03-21 08:14:00,
2013-03-21 04:24:00,17.0,17.0,29.95,SW,225,3.0,5.0,100,0.00,,,-99.99,Weather View 32 v60,2013-03-21 08:24:00,
2013-03-21 04:29:00,17.0,17.0,29.95,WSW,247,0.0,5.0,100,0.00,,,-99.99,Weather View 32 v60,2013-03-21 08:29:00,
2013-03-21 04:39:00,16.0,16.0,29.94,WSW,247,0.0,5.0,100,0.00,,,-99.99,Weather View 32 v60,2013-03-21 08:39:00,
2013-03-21 04:49:00,17.0,17.0,29.94,SW,225,3.0,5.0,100,0.00,,,-99.99,Weather View 32 v60,2013-03-21 08:49:00,
2013-03-21 04:54:00,17.0,17.0,29.94,West,270,0.0,5.0,100,0.00,,,-99.99,Weather View 32 v60,2013-03-21 08:54:00,
2013-03-21 05:04:00,17.0,17.0,29.94,WSW,247,0.0,5.0,100,0.00,,,-99.99,Weather View 32 v60,2013-03-21 09:04:00,
2013-03-21 05:09:00,17.0,17.0,29.94,WSW,247,1.0,5.0,100,0.00,,,-99.99,Weather View 32 v60,2013-03-21 09:09:00,
2013-03-21 05:19:00,17.0,17.0,29.93,SW,225,3.0,5.0,100,0.00,,,-99.99,Weather View 32 v60,2013-03-21 09:19:00,
2013-03-21 05:24:00,16.0,16.0,29.93,SW,225,0.0,5.0,100,0.00,,,-99.99,Weather View 32 v60,2013-03-21 09:24:00,
2013-03-21 05:34:00,16.0,16.0,29.94,WSW,247,1.0,5.0,100,0.00,,,-99.99,Weather View 32 v60,2013-03-21 09:34:00,
2013-03-21 05:44:00,17.0,17.0,29.93,WSW,247,5.0,5.0,100,0.00,,,-99.99,Weather View 32 v60,2013-03-21 09:44:00,
2013-03-21 05:54:00,17.0,17.0,29.93,SW,225,3.0,5.0,100,0.00,,,-99.99,Weather View 32 v60,2013-03-21 09:54:00,
2013-03-21 05:59:00,17.0,17.0,29.93,WSW,247,1.0,5.0,100,0.00,,,-99.99,Weather View 32 v60,2013-03-21 09:59:00,
2013-03-21 06:04:00,17.0,17.0,29.93,WSW,247,4.0,5.0,100,0.00,,,-99.99,Weather View 32 v60,2013-03-21 10:04:00,
2013-03-21 06:14:00,16.0,16.0,29.93,WSW,247,1.0,5.0,100,0.00,,,-99.99,Weather View 32 v60,2013-03-21 10:14:00,
2013-03-21 06:19:00,16.0,16.0,29.93,WSW,247,0.0,5.0,100,0.00,,,-99.99,Weather View 32 v60,2013-03-21 10:19:00,
2013-03-21 06:29:00,16.0,16.0,29.93,WSW,247,0.0,5.0,100,0.00,,,-99.99,Weather View 32 v60,2013-03-21 10:29:00,
2013-03-21 06:39:00,15.0,15.0,29.93,SW,225,0.0,5.0,100,0.00,,,-99.99,Weather View 32 v60,2013-03-21 10:39:00,
2013-03-21 06:49:00,15.0,15.0,29.93,West,270,0.0,5.0,100,0.00,,,-99.99,Weather View 32 v60,2013-03-21 10:49:00,
2013-03-21 06:54:00,14.0,14.0,29.93,West,270,0.0,5.0,100,0.00,,,-99.99,Weather View 32 v60,2013-03-21 10:54:00,
2013-03-21 07:04:00,14.0,14.0,29.93,West,270,0.0,5.0,100,0.00,,,-99.99,Weather View 32 v60,2013-03-21 11:04:00,
2013-03-21 07:09:00,14.0,14.0,29.93,West,270,0.0,5.0,100,0.00,,,-99.99,Weather View 32 v60,2013-03-21 11:09:00,
2013-03-21 07:14:00,14.0,14.0,29.94,West,270,0.0,3.0,100,0.00,,,-99.99,Weather View 32 v60,2013-03-21 11:14:00,
2013-03-21 07:24:00,14.0,14.0,29.94,West,270,0.0,3.0,100,0.00,,,-99.99,Weather View 32 v60,2013-03-21 11:24:00,
2013-03-21 07:29:00,13.0,13.0,29.94,West,270,0.0,3.0,100,0.00,,,-99.99,Weather View 32 v60,2013-03-21 11:29:00,
2013-03-21 07:30:00,13.0,13.0,29.94,West,270,0.0,3.0,100,0.00,,,-99.99,Weather View 32 v60,2013-03-21 11:30:00,
2013-03-21 08:09:00,16.0,16.0,29.94,WSW,247,0.0,0.0,100,0.00,,,-99.99,Weather View 32 v60,2013-03-21 12:09:00,
2013-03-21 08:14:00,16.0,16.0,29.95,WSW,247,0.0,0.0,100,0.00,,,-99.99,Weather View 32 v60,2013-03-21 12:14:00,
2013-03-21 08:24:00,17.0,17.0,29.94,WSW,247,0.0,0.0,100,0.00,,,-99.99,Weather View 32 v60,2013-03-21 12:24:00,
2013-03-21 08:29:00,17.0,17.0,29.94,WSW,247,0.0,0.0,100,0.00,,,-99.99,Weather View 32 v60,2013-03-21 12:29:00,
2013-03-21 08:39:00,18.0,18.0,29.94,WSW,247,0.0,0.0,100,0.00,,,-99.99,Weather View 32 v60,2013-03-21 12:39:00,
2013-03-21 08:49:00,21.0,18.8,29.93,SW,225,2.0,4.0,91,0.00,,,-99.99,Weather View 32 v60,2013-03-21 12:49:00,
2013-03-21 08:54:00,22.0,19.3,29.92,WSW,247,4.0,4.0,89,0.00,,,-99.99,Weather View 32 v60,2013-03-21 12:54:00,
2013-03-21 09:04:00,23.0,18.3,29.92,NNW,337,0.0,4.0,82,0.00,,,-99.99,Weather View 32 v60,2013-03-21 13:04:00,
2013-03-21 09:09:00,24.0,18.1,29.92,West,270,2.0,4.0,78,0.00,,,-99.99,Weather View 32 v60,2013-03-21 13:09:00,
2013-03-21 09:19:00,25.0,18.2,29.91,South,180,0.0,9.0,75,0.00,,,-99.99,Weather View 32 v60,2013-03-21 13:19:00,
2013-03-21 09:24:00,26.0,18.5,29.91,SW,225,0.0,9.0,73,0.00,,,-99.99,Weather View 32 v60,2013-03-21 13:24:00,
2013-03-21 09:34:00,24.0,18.4,29.92,NE,45,1.0,10.0,79,0.00,,,-99.99,Weather View 32 v60,2013-03-21 13:34:00,
2013-03-21 09:39:00,23.0,18.6,29.92,NW,315,0.0,10.0,83,0.00,,,-99.99,Weather View 32 v60,2013-03-21 13:39:00,
2013-03-21 09:49:00,23.0,19.7,29.94,NNW,337,4.0,10.0,87,0.00,,,-99.99,Weather View 32 v60,2013-03-21 13:49:00,
2013-03-21 09:59:00,23.0,20.0,29.94,North,360,3.0,10.0,88,0.00,,,-99.99,Weather View 32 v60,2013-03-21 13:59:00,
2013-03-21 10:07:00,23.0,20.2,29.94,West,270,3.0,10.0,89,0.00,,,-99.99,Weather View 32 v60,2013-03-21 14:07:00,
2013-03-21 10:14:00,22.0,20.5,29.94,WSW,247,0.0,10.0,94,0.00,,,-99.99,Weather View 32 v60,2013-03-21 14:14:00,
2013-03-21 10:19:00,22.0,20.5,29.94,NNE,22,0.0,10.0,94,0.00,,,-99.99,Weather View 32 v60,2013-03-21 14:19:00,
2013-03-21 10:29:00,23.0,20.2,29.94,NW,315,1.0,6.0,89,0.00,,,-99.99,Weather View 32 v60,2013-03-21 14:29:00,
2013-03-21 10:34:00,22.0,19.0,29.96,West,270,3.0,6.0,88,0.00,,,-99.99,Weather View 32 v60,2013-03-21 14:34:00,
2013-03-21 10:39:00,22.0,18.2,29.96,NW,315,0.0,9.0,85,0.00,,,-99.99,Weather View 32 v60,2013-03-21 14:39:00,
2013-03-21 10:49:00,23.0,18.9,29.95,SW,225,3.0,9.0,84,0.00,,,-99.99,Weather View 32 v60,2013-03-21 14:49:00,
2013-03-21 10:59:00,24.0,17.5,29.96,NW,315,5.0,9.0,76,0.00,,,-99.99,Weather View 32 v60,2013-03-21 14:59:00,
2013-03-21 11:08:00,24.0,17.5,29.96,WNW,292,4.0,9.0,76,0.00,,,-99.99,Weather View 32 v60,2013-03-21 15:08:00,
2013-03-21 11:14:00,24.0,21.0,29.96,West,270,3.0,9.0,88,0.00,,,-99.99,Weather View 32 v60,2013-03-21 15:14:00,
2013-03-21 11:19:00,23.0,21.8,29.96,West,270,0.0,9.0,95,0.00,,,-99.99,Weather View 32 v60,2013-03-21 15:19:00,
2013-03-21 11:29:00,23.0,22.5,29.97,SW,225,0.0,9.0,98,0.00,,,-99.99,Weather View 32 v60,2013-03-21 15:29:00,
2013-03-21 11:39:00,25.0,23.3,29.96,West,270,3.0,6.0,93,0.00,,,-99.99,Weather View 32 v60,2013-03-21 15:39:00,
2013-03-21 11:49:00,24.0,23.5,29.96,NW,315,4.0,6.0,98,0.00,,,-99.99,Weather View 32 v60,2013-03-21 15:49:00,
2013-03-21 11:59:00,27.0,21.7,29.96,SW,225,2.0,6.0,80,0.00,,,-99.99,Weather View 32 v60,2013-03-21 15:59:00,
2013-03-21 12:04:00,29.0,23.0,29.94,West,270,3.0,8.0,78,0.00,,,-99.99,Weather View 32 v60,2013-03-21 16:04:00,
2013-03-21 12:09:00,29.0,21.4,29.94,West,270,2.0,8.0,73,0.00,,,-99.99,Weather View 32 v60,2013-03-21 16:09:00,
2013-03-21 12:19:00,25.0,17.9,29.94,West,270,4.0,10.0,74,0.00,,,-99.99,Weather View 32 v60,2013-03-21 16:19:00,
2013-03-21 12:29:00,24.0,22.0,29.95,NW,315,0.0,10.0,92,0.00,,,-99.99,Weather View 32 v60,2013-03-21 16:29:00,
2013-03-21 12:34:00,23.0,22.8,29.96,WNW,292,4.0,10.0,99,0.00,,,-99.99,Weather View 32 v60,2013-03-21 16:34:00,
2013-03-21 12:39:00,23.0,23.0,29.96,NW,315,0.0,10.0,100,0.00,,,-99.99,Weather View 32 v60,2013-03-21 16:39:00,
2013-03-21 12:44:00,25.0,25.0,29.96,NNW,337,3.0,10.0,100,0.00,,,-99.99,Weather View 32 v60,2013-03-21 16:44:00,
2013-03-21 12:49:00,27.0,23.6,29.96,SW,225,3.0,10.0,87,0.00,,,-99.99,Weather View 32 v60,2013-03-21 16:49:00,
2013-03-21 12:54:00,29.0,21.8,29.95,NNW,337,0.0,10.0,74,0.00,,,-99.99,Weather View 32 v60,2013-03-21 16:54:00,
2013-03-21 12:59:00,30.0,21.7,29.95,WSW,247,3.0,10.0,71,0.00,,,-99.99,Weather View 32 v60,2013-03-21 16:59:00,
2013-03-21 13:09:00,30.0,20.4,29.94,WSW,247,5.0,10.0,67,0.00,,,-99.99,Weather View 32 v60,2013-03-21 17:09:00,
2013-03-21 13:19:00,30.0,18.6,29.94,SW,225,4.0,10.0,62,0.00,,,-99.99,Weather View 32 v60,2013-03-21 17:19:00,
2013-03-21 13:24:00,31.0,20.6,29.94,North,360,4.0,10.0,65,0.00,,,-99.99,Weather View 32 v60,2013-03-21 17:24:00,
2013-03-21 13:29:00,31.0,19.9,29.94,NNW,337,5.0,10.0,63,0.00,,,-99.99,Weather View 32 v60,2013-03-21 17:29:00,
2013-03-21 13:39:00,32.0,19.7,29.94,North,360,4.0,10.0,60,0.00,,,-99.99,Weather View 32 v60,2013-03-21 17:39:00,
2013-03-21 13:49:00,31.0,17.1,29.94,WSW,247,6.0,10.0,56,0.00,,,-99.99,Weather View 32 v60,2013-03-21 17:49:00,
2013-03-21 13:54:00,30.0,17.0,29.94,WNW,292,5.0,10.0,58,0.00,,,-99.99,Weather View 32 v60,2013-03-21 17:54:00,
2013-03-21 14:04:00,30.0,16.6,29.94,NNW,337,3.0,10.0,57,0.00,,,-99.99,Weather View 32 v60,2013-03-21 18:04:00,
2013-03-21 14:09:00,32.0,17.2,29.94,WNW,292,0.0,9.0,54,0.00,,,-99.99,Weather View 32 v60,2013-03-21 18:09:00,
2013-03-21 14:14:00,31.0,15.9,29.94,West,270,0.0,9.0,53,0.00,,,-99.99,Weather View 32 v60,2013-03-21 18:14:00,
2013-03-21 14:19:00,30.0,17.0,29.94,West,270,2.0,9.0,58,0.00,,,-99.99,Weather View 32 v60,2013-03-21 18:19:00,
2013-03-21 14:29:00,29.0,16.5,29.94,West,270,3.0,9.0,59,0.00,,,-99.99,Weather View 32 v60,2013-03-21 18:29:00,
2013-03-21 14:39:00,29.0,16.1,29.94,North,360,0.0,9.0,58,0.00,,,-99.99,Weather View 32 v60,2013-03-21 18:39:00,
2013-03-21 14:44:00,29.0,16.1,29.94,NW,315,3.0,9.0,58,0.00,,,-99.99,Weather View 32 v60,2013-03-21 18:44:00,
2013-03-21 14:49:00,28.0,15.9,29.94,SW,225,0.0,9.0,60,0.00,,,-99.99,Weather View 32 v60,2013-03-21 18:49:00,
2013-03-21 14:54:00,29.0,15.7,29.95,SW,225,2.0,8.0,57,0.00,,,-99.99,Weather View 32 v60,2013-03-21 18:54:00,
2013-03-21 14:59:00,28.0,14.7,29.95,West,270,2.0,10.0,57,0.00,,,-99.99,Weather View 32 v60,2013-03-21 18:59:00,
2013-03-21 15:09:00,29.0,16.8,29.94,WNW,292,4.0,10.0,60,0.00,,,-99.99,Weather View 32 v60,2013-03-21 19:09:00,
2013-03-21 15:14:00,29.0,16.8,29.94,West,270,4.0,10.0,60,0.00,,,-99.99,Weather View 32 v60,2013-03-21 19:14:00,
2013-03-21 15:24:00,29.0,16.8,29.94,NW,315,2.0,10.0,60,0.00,,,-99.99,Weather View 32 v60,2013-03-21 19:24:00,
2013-03-21 15:29:00,32.0,16.4,29.94,WSW,247,5.0,10.0,52,0.00,,,-99.99,Weather View 32 v60,2013-03-21 19:29:00,
2013-03-21 15:39:00,30.0,13.6,29.93,West,270,0.0,10.0,50,0.00,,,-99.99,Weather View 32 v60,2013-03-21 19:39:00,
2013-03-21 15:49:00,33.0,16.8,29.92,WNW,292,2.0,10.0,51,0.00,,,-99.99,Weather View 32 v60,2013-03-21 19:49:00,
2013-03-21 15:59:00,32.0,15.4,29.92,West,270,3.0,8.0,50,0.00,,,-99.99,Weather View 32 v60,2013-03-21 19:59:00,
2013-03-21 16:09:00,34.0,16.8,29.92,NNW,337,1.0,8.0,49,0.00,,,-99.99,Weather View 32 v60,2013-03-21 20:09:00,
2013-03-21 16:14:00,35.0,17.3,29.92,North,360,2.0,8.0,48,0.00,,,-99.99,Weather View 32 v60,2013-03-21 20:14:00,
2013-03-21 16:19:00,35.0,16.3,29.92,WSW,247,3.0,8.0,46,0.00,,,-99.99,Weather View 32 v60,2013-03-21 20:19:00,
2013-03-21 16:29:00,34.0,17.8,29.90,NNW,337,5.0,9.0,51,0.00,,,-99.99,Weather View 32 v60,2013-03-21 20:29:00,
2013-03-21 16:39:00,32.0,15.4,29.91,NNW,337,0.0,9.0,50,0.00,,,-99.99,Weather View 32 v60,2013-03-21 20:39:00,
2013-03-21 16:44:00,34.0,15.9,29.91,NW,315,3.0,9.0,47,0.00,,,-99.99,Weather View 32 v60,2013-03-21 20:44:00,
2013-03-21 16:49:00,34.0,15.4,29.91,West,270,3.0,9.0,46,0.00,,,-99.99,Weather View 32 v60,2013-03-21 20:49:00,
2013-03-21 16:59:00,32.0,14.0,29.90,NNE,22,3.0,9.0,47,0.00,,,-99.99,Weather View 32 v60,2013-03-21 20:59:00,
2013-03-21 17:09:00,33.0,14.9,29.91,North,360,0.0,9.0,47,0.00,,,-99.99,Weather View 32 v60,2013-03-21 21:09:00,
2013-03-21 17:14:00,33.0,14.9,29.90,West,270,4.0,9.0,47,0.00,,,-99.99,Weather View 32 v60,2013-03-21 21:14:00,
2013-03-21 17:24:00,32.0,14.5,29.91,North,360,0.0,9.0,48,0.00,,,-99.99,Weather View 32 v60,2013-03-21 21:24:00,
2013-03-21 17:29:00,32.0,14.5,29.91,NE,45,0.0,9.0,48,0.00,,,-99.99,Weather View 32 v60,2013-03-21 21:29:00,
2013-03-21 17:39:00,33.0,14.5,29.90,WSW,247,3.0,9.0,46,0.00,,,-99.99,Weather View 32 v60,2013-03-21 21:39:00,
2013-03-21 17:49:00,32.0,15.0,29.91,North,360,1.0,9.0,49,0.00,,,-99.99,Weather View 32 v60,2013-03-21 21:49:00,
2013-03-21 17:59:00,30.0,14.1,29.91,WSW,247,0.0,9.0,51,0.00,,,-99.99,Weather View 32 v60,2013-03-21 21:59:00,
2013-03-21 18:04:00,30.0,14.5,29.92,West,270,0.0,9.0,52,0.00,,,-99.99,Weather View 32 v60,2013-03-21 22:04:00,
2013-03-21 18:12:00,30.0,14.9,29.92,NNW,337,1.0,7.0,53,0.00,,,-99.99,Weather View 32 v60,2013-03-21 22:12:00,
2013-03-21 18:19:00,30.0,14.5,29.92,NNW,337,0.0,6.0,52,0.00,,,-99.99,Weather View 32 v60,2013-03-21 22:19:00,
2013-03-21 18:29:00,29.0,14.0,29.93,WNW,292,0.0,5.0,53,0.00,,,-99.99,Weather View 32 v60,2013-03-21 22:29:00,
2013-03-21 18:34:00,30.0,14.9,29.93,SW,225,0.0,5.0,53,0.00,,,-99.99,Weather View 32 v60,2013-03-21 22:34:00,
2013-03-21 18:44:00,31.0,14.5,29.92,WSW,247,0.0,5.0,50,0.00,,,-99.99,Weather View 32 v60,2013-03-21 22:44:00,
2013-03-21 18:49:00,31.0,14.5,29.92,NW,315,0.0,5.0,50,0.00,,,-99.99,Weather View 32 v60,2013-03-21 22:49:00,
2013-03-21 18:59:00,30.0,14.1,29.92,NNW,337,0.0,4.0,51,0.00,,,-99.99,Weather View 32 v60,2013-03-21 22:59:00,
2013-03-21 19:09:00,30.0,14.5,29.92,WNW,292,0.0,4.0,52,0.00,,,-99.99,Weather View 32 v60,2013-03-21 23:09:00,
2013-03-21 19:14:00,30.0,14.5,29.93,NW,315,0.0,4.0,52,0.00,,,-99.99,Weather View 32 v60,2013-03-21 23:14:00,
2013-03-21 19:19:00,29.0,13.6,29.93,WNW,292,0.0,4.0,52,0.00,,,-99.99,Weather View 32 v60,2013-03-21 23:19:00,
2013-03-21 19:29:00,28.0,12.6,29.93,WNW,292,0.0,4.0,52,0.00,,,-99.99,Weather View 32 v60,2013-03-21 23:29:00,
2013-03-21 19:39:00,27.0,13.0,29.94,WNW,292,0.0,4.0,55,0.00,,,-99.99,Weather View 32 v60,2013-03-21 23:39:00,
2013-03-21 19:49:00,25.0,11.1,29.94,WNW,292,0.0,4.0,55,0.00,,,-99.99,Weather View 32 v60,2013-03-21 23:49:00,
2013-03-21 19:54:00,24.0,10.6,29.95,WNW,292,0.0,2.0,56,0.00,,,-99.99,Weather View 32 v60,2013-03-21 23:54:00,
2013-03-21 19:59:00,24.0,11.0,29.95,WNW,292,0.0,2.0,57,0.00,,,-99.99,Weather View 32 v60,2013-03-21 23:59:00,
2013-03-21 20:09:00,22.0,10.2,29.96,WNW,292,0.0,1.0,60,0.00,,,-99.99,Weather View 32 v60,2013-03-22 00:09:00,
2013-03-21 20:19:00,22.0,13.1,29.96,WNW,292,0.0,0.0,68,0.00,,,-99.99,Weather View 32 v60,2013-03-22 00:19:00,
2013-03-21 20:29:00,22.0,11.7,29.97,WNW,292,0.0,0.0,64,0.00,,,-99.99,Weather View 32 v60,2013-03-22 00:29:00,
2013-03-21 20:34:00,22.0,12.4,29.97,WNW,292,0.0,0.0,66,0.00,,,-99.99,Weather View 32 v60,2013-03-22 00:34:00,
2013-03-21 20:39:00,22.0,12.7,29.97,WNW,292,0.0,0.0,67,0.00,,,-99.99,Weather View 32 v60,2013-03-22 00:39:00,
2013-03-21 20:49:00,22.0,12.4,29.97,WNW,292,0.0,0.0,66,0.00,,,-99.99,Weather View 32 v60,2013-03-22 00:49:00,
2013-03-21 20:59:00,22.0,12.0,29.98,WNW,292,0.0,0.0,65,0.00,,,-99.99,Weather View 32 v60,2013-03-22 00:59:00,
2013-03-21 21:09:00,22.0,12.4,29.99,WNW,292,0.0,0.0,66,0.00,,,-99.99,Weather View 32 v60,2013-03-22 01:09:00,
2013-03-21 21:14:00,22.0,12.0,29.99,WNW,292,0.0,0.0,65,0.00,,,-99.99,Weather View 32 v60,2013-03-22 01:14:00,
2013-03-21 21:24:00,22.0,12.7,29.99,WNW,292,0.0,0.0,67,0.00,,,-99.99,Weather View 32 v60,2013-03-22 01:24:00,
2013-03-21 21:29:00,22.0,12.7,29.99,WNW,292,0.0,0.0,67,0.00,,,-99.99,Weather View 32 v60,2013-03-22 01:29:00,
2013-03-21 21:39:00,22.0,12.7,30.00,North,360,0.0,0.0,67,0.00,,,-99.99,Weather View 32 v60,2013-03-22 01:39:00,
2013-03-21 21:49:00,22.0,12.7,29.99,WNW,292,0.0,0.0,67,0.00,,,-99.99,Weather View 32 v60,2013-03-22 01:49:00,
2013-03-21 21:59:00,21.0,11.8,29.99,WNW,292,0.0,0.0,67,0.00,,,-99.99,Weather View 32 v60,2013-03-22 01:59:00,
2013-03-21 22:04:00,21.0,11.8,30.00,WNW,292,0.0,0.0,67,0.00,,,-99.99,Weather View 32 v60,2013-03-22 02:04:00,
2013-03-21 22:14:00,20.0,16.2,30.00,WNW,292,0.0,0.0,85,0.00,,,-99.99,Weather View 32 v60,2013-03-22 02:14:00,
2013-03-21 22:15:00,20.0,16.2,30.00,WNW,292,0.0,0.0,85,0.00,,,-99.99,Weather View 32 v60,2013-03-22 02:15:00,